Weather History for Kirksville, MO

Change the Weather History Date:

Wednesday, January 30, 2013

  Actual Average Record
Temperature  
Mean Temperature 28 °F 27 °F  
Max Temperature 34 °F 36 °F 64 °F (2012)
Min Temperature 22 °F 17 °F -16 °F (1965)
Degree Days  
Heating Degree Days 37 38  
Month to date heating degree days 1082 1168  
Since 1 July heating degree days 3324 3511  
Cooling Degree Days 0 0  
Month to date cooling degree days 0 0  
Year to date cooling degree days 0 0  
Moisture  
Dew Point 24 °F    
Average Humidity 83    
Maximum Humidity 100    
Minimum Humidity 65    
Precipitation  
Precipitation 0.22 in 0.06 in 1.28 in (2002)
Month to date precipitation 2.10 1.20  
Year to date precipitation 2.10 1.20  
Sea Level Pressure  
Sea Level Pressure 29.60 in    
Wind  
Wind Speed 15 mph (NW)    
Max Wind Speed 25 mph    
Max Gust Speed 35 mph    
Visibility 5 miles    
Events Fog , Rain , Snow    
T = Trace of Precipitation, MM = Missing Value Source: NWS Daily Summary

Daily Weather History Graph

Daily Weather History Graph

Search for Another Location

Airport:

Trip Planner

Search our weather history database for the weather conditions in past years. The results will help you decide how hot, cold, wet, or windy it might be!

Date:

Astronomy

Jan. 30, 2013 Rise Set
Actual Time 7:20 AM CST 5:27 PM CST
Civil Twilight 6:51 AM CST 5:55 PM CST
Nautical Twilight 6:19 AM CST 6:28 PM CST
Astronomical Twilight 5:47 AM CST 7:00 PM CST
Moon 9:26 PM CST 8:48 AM CST
Length of Visible Light 11h 04m
Length of Day
10h 06m
Waning Gibbous, 87% of the Moon is Illuminated
Jan 30
Waning Gibbous
Feb 3
Last Quarter
Feb 10
New
Feb 17
First Quarter
Feb 25
Full

Hourly Weather History & Observations

Time (CST) Temp. Windchill Dew Point Humidity Pressure Visibility Wind Dir Wind Speed Gust Speed Precip Events Conditions
12:55 AM 34.0 °F 29.8 °F 33.1 °F 96% 29.53 in 4.0 mi North 4.6 mph - 0.07 in Rain Light Rain
1:55 AM 33.1 °F 23.0 °F 32.0 °F 96% 29.46 in 9.0 mi NNE 15.0 mph - 0.02 in   Overcast
2:55 AM 33.1 °F 23.4 °F 33.1 °F 100% 29.43 in 10.0 mi NE 13.8 mph - N/A   Overcast
3:55 AM 33.1 °F 26.9 °F 33.1 °F 100% 29.44 in 3.0 mi WNW 6.9 mph - N/A   Overcast
4:04 AM 33.8 °F 28.6 °F 33.8 °F 100% 29.40 in 2.0 mi NNW 5.8 mph - 0.02 in Rain Rain
4:55 AM 32.0 °F 24.2 °F 32.0 °F 100% 29.44 in 1.5 mi WNW 9.2 mph - 0.06 in Snow Light Snow
5:10 AM 32.0 °F 23.0 °F 32.0 °F 100% 29.44 in 0.8 mi WNW 11.5 mph - 0.01 in Snow Light Snow
5:17 AM 32.0 °F 22.1 °F 32.0 °F 100% 29.45 in 0.8 mi WNW 13.8 mph - 0.02 in Snow Light Snow
5:34 AM 32.0 °F 22.5 °F 32.0 °F 100% 29.46 in 1.2 mi WNW 12.7 mph - 0.03 in Snow Light Snow
5:55 AM 32.0 °F 20.8 °F 30.9 °F 96% 29.48 in 1.0 mi NW 17.3 mph 26.5 mph 0.04 in Snow Light Snow
6:06 AM 32.0 °F 20.1 °F 30.2 °F 93% 29.45 in 2.0 mi NW 19.6 mph 29.9 mph 0.00 in Snow Light Snow
6:13 AM 30.2 °F 19.3 °F 28.4 °F 93% 29.45 in 3.0 mi NNW 15.0 mph 29.9 mph 0.00 in Snow Light Snow
6:22 AM 30.2 °F 18.5 °F 28.4 °F 93% 29.45 in 4.0 mi NNW 17.3 mph 26.5 mph 0.00 in   Overcast
6:55 AM 30.0 °F 17.2 °F 27.0 °F 88% 29.47 in 10.0 mi North 20.7 mph 32.2 mph 0.00 in   Mostly Cloudy
7:37 AM 30.2 °F 18.5 °F 26.6 °F 86% 29.48 in 10.0 mi NNW 17.3 mph 24.2 mph N/A   Overcast
7:55 AM 28.9 °F 18.6 °F 26.1 °F 89% 29.52 in 10.0 mi NW 12.7 mph 26.5 mph N/A   Overcast
8:27 AM 28.4 °F 16.2 °F 26.6 °F 93% 29.51 in 8.0 mi NW 17.3 mph 24.2 mph 0.00 in Snow Light Snow
8:48 AM 28.4 °F 17.0 °F 24.8 °F 86% 29.51 in 1.8 mi NW 15.0 mph 21.9 mph 0.00 in Snow Light Snow
8:55 AM 28.0 °F 16.5 °F 25.0 °F 88% 29.55 in 1.5 mi NW 15.0 mph 21.9 mph 0.00 in Snow Light Snow
9:55 AM 27.0 °F 15.6 °F 25.0 °F 92% 29.58 in 1.0 mi NW 13.8 mph 25.3 mph 0.01 in Snow Light Snow
10:11 AM 26.6 °F 15.2 °F 24.8 °F 93% 29.56 in 1.0 mi NW 13.8 mph 25.3 mph 0.01 in Snow Light Snow
10:20 AM 26.6 °F 14.7 °F 24.8 °F 93% 29.56 in 0.5 mi NW 15.0 mph 24.2 mph 0.01 in Fog , Snow Snow
10:32 AM 26.6 °F 15.2 °F 24.8 °F 93% 29.57 in 0.8 mi WNW 13.8 mph 25.3 mph 0.01 in Snow Light Snow
10:38 AM 26.6 °F 14.3 °F 24.8 °F 93% 29.57 in 1.0 mi NW 16.1 mph 25.3 mph 0.01 in Snow Light Snow
10:55 AM 27.0 °F 14.7 °F 23.0 °F 85% 29.62 in 1.5 mi WNW 16.1 mph 27.6 mph 0.01 in Snow Light Snow
11:13 AM 26.6 °F 14.3 °F 23.0 °F 86% 29.60 in 1.2 mi WNW 16.1 mph 27.6 mph 0.00 in Snow Light Snow
11:21 AM 26.6 °F 13.8 °F 21.2 °F 80% 29.60 in 0.8 mi NW 17.3 mph 26.5 mph 0.00 in Snow Light Snow
11:30 AM 26.6 °F 13.8 °F 21.2 °F 80% 29.61 in 1.0 mi NW 17.3 mph 28.8 mph 0.00 in Snow Light Snow
11:40 AM 26.6 °F 12.7 °F 21.2 °F 80% 29.61 in 1.0 mi NW 20.7 mph 31.1 mph 0.00 in Snow Light Snow
11:55 AM 25.0 °F 10.9 °F 21.9 °F 88% 29.65 in 0.5 mi NW 19.6 mph 27.6 mph 0.00 in Fog , Snow Snow
12:26 PM 24.8 °F 11.1 °F 21.2 °F 86% 29.62 in 0.8 mi NW 18.4 mph 33.4 mph 0.01 in Snow Light Snow
12:36 PM 24.8 °F 10.7 °F 21.2 °F 86% 29.62 in 1.2 mi NW 19.6 mph 27.6 mph 0.01 in Snow Light Snow
12:55 PM 25.0 °F 11.7 °F 19.9 °F 81% 29.66 in 2.5 mi NW 17.3 mph 33.4 mph 0.01 in Snow Light Snow
1:02 PM 26.6 °F 13.4 °F 19.4 °F 74% 29.63 in 5.0 mi NW 18.4 mph 28.8 mph 0.00 in Snow Light Snow
1:55 PM 25.0 °F 11.7 °F 18.0 °F 75% 29.68 in 10.0 mi WNW 17.3 mph 27.6 mph 0.00 in   Overcast
2:55 PM 25.0 °F 12.2 °F 17.1 °F 72% 29.72 in 10.0 mi NW 16.1 mph 31.1 mph N/A   Overcast
3:55 PM 24.1 °F 11.5 °F 16.0 °F 71% 29.75 in 10.0 mi NW 15.0 mph 27.6 mph N/A   Overcast
4:55 PM 24.1 °F 11.0 °F 16.0 °F 71% 29.78 in 7.0 mi WNW 16.1 mph 28.8 mph 0.00 in Snow Light Snow
5:55 PM 23.0 °F 10.6 °F 15.1 °F 72% 29.81 in 10.0 mi West 13.8 mph 29.9 mph 0.00 in   Overcast
6:55 PM 23.0 °F 8.3 °F 12.9 °F 65% 29.86 in 10.0 mi WNW 19.6 mph 28.8 mph 0.00 in   Overcast
7:55 PM 23.0 °F 9.6 °F 14.0 °F 68% 29.88 in 9.0 mi WNW 16.1 mph 25.3 mph 0.00 in   Overcast
8:55 PM 21.9 °F 9.8 °F 12.9 °F 68% 29.91 in 10.0 mi WNW 12.7 mph 20.7 mph 0.00 in   Overcast
9:55 PM 21.9 °F 10.4 °F 16.0 °F 78% 29.92 in 7.0 mi West 11.5 mph - 0.00 in Snow Light Snow
10:55 PM 21.9 °F 10.4 °F 14.0 °F 72% 29.92 in 10.0 mi West 11.5 mph 17.3 mph 0.00 in   Overcast
11:55 PM 21.9 °F 11.7 °F 14.0 °F 72% 29.93 in 10.0 mi WSW 9.2 mph - N/A   Overcast